Location: Boiro
(42.6475°N, 8.8834°W)
Time: 08:36:12
(UTC+01:00)

SR - Pass Details

Date: 04 December 2021
Orbit: 583 x 872 km, 66.7° (Epoch: 16 January)

Event Time Altitude Azimuth Distance (km) Brightness Sun altitude
Rises 10:55:03 0° 314° (NW) 2,842 ? 16.4°
Reaches altitude 10° 10:57:43 10° 297° (WNW) 1,962 ? 16.6°
Maximum altitude 11:00:54 20° 250° (WSW) 1,461 ? 17.0°
Drops below altitude 10° 11:04:12 10° 204° (SSW) 2,048 ? 17.3°
Sets 11:07:05 0° 187° (S) 3,009 ? 17.6°
